User: anonymous
Location: Cimarron National Grasslands
(37.1250°N, 101.7500°W)
Time: 01:17:34
(UTC-05:00)
Language:

Ariane Rocket - Orbit

View from above orbital plane
View from above orbital plane
View from above satellite
View from above satellite

Ground track
Ground track

The orbit data is extracted from the following two-line orbital elements,

1 23561U 95021B   14203.80105932  .00000044  00000-0  29978-4 0  8189
2 23561 098.6845 170.3280 0007771 151.6448 267.9910 14.37286972  8899
Epoch (UTC): 22 July 2014 19:13:31
Eccentricity: 0.0007771
inclination: 98.6845°
perigee height: 762 km
apogee height: 773 km
right ascension of ascending node: 170.3280°
argument of perigee: 151.6448°
revolutions per day: 14.37286972
mean anomaly at epoch: 267.9910°
orbit number at epoch: 889

The dashed part of the orbit path shows where the satellite is in the earth's shadow,  

DLR